Time,TemperatureF,DewpointF,PressureIn,WindDirection,WindDirectionDegrees,WindSpeedMPH,WindSpeedGustMPH,Humidity,HourlyPrecipIn,Conditions,Clouds,dailyrainin,SoftwareType,DateUTC
2013-03-20 00:00:00,22.8,18.4,29.74,ESE,112,1.0,0.0,83,0.00,,CLR,-99.99,VWS V14.01,2013-03-20 04:00:00,
2013-03-20 00:01:00,22.8,18.4,29.74,ESE,112,1.0,0.0,83,0.00,,CLR,-99.99,VWS V14.01,2013-03-20 04:01:00,
2013-03-20 00:02:00,22.8,18.4,29.74,ESE,112,1.0,0.0,83,0.00,,CLR,-99.99,VWS V14.01,2013-03-20 04:02:00,
2013-03-20 00:05:00,22.8,18.4,29.74,ESE,112,1.0,0.0,83,0.00,,CLR,-99.99,VWS V14.01,2013-03-20 04:05:00,
2013-03-20 00:10:00,22.8,18.4,29.73,ESE,112,1.0,0.0,83,0.00,,CLR,-99.99,VWS V14.01,2013-03-20 04:10:00,
2013-03-20 00:15:00,22.8,18.4,29.73,ESE,112,1.0,0.0,83,0.00,,CLR,-99.99,VWS V14.01,2013-03-20 04:15:00,
2013-03-20 00:20:00,22.8,18.4,29.73,ESE,112,1.0,0.0,83,0.00,,CLR,-99.99,VWS V14.01,2013-03-20 04:20:00,
2013-03-20 00:25:00,22.8,18.4,29.73,ESE,112,1.0,0.0,83,0.00,,CLR,-99.99,VWS V14.01,2013-03-20 04:25:00,
2013-03-20 00:30:00,22.8,18.4,29.73,ESE,112,1.0,0.0,83,0.00,,CLR,-99.99,VWS V14.01,2013-03-20 04:30:00,
2013-03-20 00:35:00,22.8,18.4,29.73,ESE,112,1.0,0.0,83,0.00,,CLR,-99.99,VWS V14.01,2013-03-20 04:35:00,
2013-03-20 00:40:00,22.8,18.4,29.73,ESE,112,1.0,0.0,83,0.00,,CLR,-99.99,VWS V14.01,2013-03-20 04:40:00,
2013-03-20 00:45:00,22.8,18.4,29.72,ESE,112,1.0,0.0,83,0.00,,CLR,-99.99,VWS V14.01,2013-03-20 04:45:00,
2013-03-20 00:50:00,22.6,18.2,29.72,ESE,112,1.0,0.0,83,0.00,,CLR,-99.99,VWS V14.01,2013-03-20 04:50:00,
2013-03-20 00:56:00,22.4,18.0,29.72,ESE,112,1.0,0.0,83,0.00,,CLR,-99.99,VWS V14.01,2013-03-20 04:56:00,
2013-03-20 01:01:00,22.4,18.0,29.71,ESE,112,1.0,0.0,83,0.00,,CLR,-99.99,VWS V14.01,2013-03-20 05:01:00,
2013-03-20 01:06:00,22.6,18.2,29.71,ESE,112,1.0,0.0,83,0.00,,CLR,-99.99,VWS V14.01,2013-03-20 05:06:00,
2013-03-20 01:12:00,22.6,18.2,29.71,ESE,112,1.0,0.0,83,0.00,,CLR,-99.99,VWS V14.01,2013-03-20 05:12:00,
2013-03-20 01:17:00,22.4,18.0,29.71,ESE,112,1.0,0.0,83,0.00,,CLR,-99.99,VWS V14.01,2013-03-20 05:17:00,
2013-03-20 01:22:00,22.4,18.0,29.71,ESE,112,1.0,0.0,83,0.00,,CLR,-99.99,VWS V14.01,2013-03-20 05:22:00,
2013-03-20 01:27:00,22.4,18.3,29.70,ESE,112,1.0,0.0,84,0.00,,CLR,-99.99,VWS V14.01,2013-03-20 05:27:00,
2013-03-20 01:33:00,22.2,17.8,29.71,ESE,112,1.0,0.0,83,0.00,,CLR,-99.99,VWS V14.01,2013-03-20 05:33:00,
2013-03-20 01:38:00,22.2,17.8,29.70,ESE,112,1.0,0.0,83,0.00,,CLR,-99.99,VWS V14.01,2013-03-20 05:38:00,
2013-03-20 01:43:00,21.9,17.8,29.70,ESE,112,1.0,0.0,84,0.00,,CLR,-99.99,VWS V14.01,2013-03-20 05:43:00,
2013-03-20 01:48:00,22.1,18.0,29.70,ESE,112,1.0,0.0,84,0.00,,CLR,-99.99,VWS V14.01,2013-03-20 05:48:00,
2013-03-20 01:53:00,22.1,18.0,29.70,ESE,112,1.0,0.0,84,0.00,,CLR,-99.99,VWS V14.01,2013-03-20 05:53:00,
2013-03-20 01:59:00,21.9,17.8,29.70,ESE,112,1.0,0.0,84,0.00,,CLR,-99.99,VWS V14.01,2013-03-20 05:59:00,
2013-03-20 02:05:00,21.9,17.8,29.70,ESE,112,1.0,0.0,84,0.00,,CLR,-99.99,VWS V14.01,2013-03-20 06:05:00,
2013-03-20 02:10:00,21.9,17.8,29.70,ESE,112,1.0,0.0,84,0.00,,CLR,-99.99,VWS V14.01,2013-03-20 06:10:00,
2013-03-20 02:15:00,21.9,17.8,29.70,ESE,112,1.0,0.0,84,0.00,,CLR,-99.99,VWS V14.01,2013-03-20 06:15:00,
2013-03-20 02:20:00,21.5,17.4,29.70,ESE,112,1.0,0.0,84,0.00,,CLR,-99.99,VWS V14.01,2013-03-20 06:20:00,
2013-03-20 02:25:00,21.7,17.6,29.70,ESE,112,1.0,0.0,84,0.00,,CLR,-99.99,VWS V14.01,2013-03-20 06:25:00,
2013-03-20 02:30:00,21.9,17.8,29.70,ESE,112,1.0,0.0,84,0.00,,CLR,-99.99,VWS V14.01,2013-03-20 06:30:00,
2013-03-20 02:35:00,21.9,17.8,29.69,ESE,112,1.0,0.0,84,0.00,,CLR,-99.99,VWS V14.01,2013-03-20 06:35:00,
2013-03-20 02:40:00,22.1,18.0,29.69,ESE,112,1.0,0.0,84,0.00,,CLR,-99.99,VWS V14.01,2013-03-20 06:40:00,
2013-03-20 02:45:00,21.9,17.8,29.69,ESE,112,1.0,0.0,84,0.00,,CLR,-99.99,VWS V14.01,2013-03-20 06:45:00,
2013-03-20 02:50:00,21.9,17.8,29.68,ESE,112,1.0,0.0,84,0.00,,CLR,-99.99,VWS V14.01,2013-03-20 06:50:00,
2013-03-20 02:55:00,21.9,17.8,29.68,ESE,112,1.0,0.0,84,0.00,,CLR,-99.99,VWS V14.01,2013-03-20 06:55:00,
2013-03-20 03:00:00,21.9,17.8,29.68,ESE,112,1.0,0.0,84,0.00,,CLR,-99.99,VWS V14.01,2013-03-20 07:00:00,
2013-03-20 03:05:00,22.1,18.0,29.68,ESE,112,1.0,0.0,84,0.00,,CLR,-99.99,VWS V14.01,2013-03-20 07:05:00,
2013-03-20 03:10:00,21.9,17.8,29.68,ESE,112,1.0,0.0,84,0.00,,CLR,-99.99,VWS V14.01,2013-03-20 07:10:00,
2013-03-20 03:15:00,21.9,17.8,29.67,ESE,112,1.0,0.0,84,0.00,,CLR,-99.99,VWS V14.01,2013-03-20 07:15:00,
2013-03-20 03:20:00,21.9,17.8,29.67,ESE,112,1.0,0.0,84,0.00,,CLR,-99.99,VWS V14.01,2013-03-20 07:20:00,
2013-03-20 03:25:00,21.9,17.8,29.67,ESE,112,1.0,0.0,84,0.00,,CLR,-99.99,VWS V14.01,2013-03-20 07:25:00,
2013-03-20 03:31:00,21.9,17.8,29.68,ESE,112,1.0,0.0,84,0.00,,CLR,-99.99,VWS V14.01,2013-03-20 07:31:00,
2013-03-20 03:37:00,21.7,17.6,29.68,ESE,112,1.0,0.0,84,0.00,,CLR,-99.99,VWS V14.01,2013-03-20 07:37:00,
2013-03-20 03:43:00,21.3,17.2,29.68,ESE,112,1.0,0.0,84,0.00,,CLR,-99.99,VWS V14.01,2013-03-20 07:43:00,
2013-03-20 03:49:00,21.0,17.2,29.68,ESE,112,1.0,0.0,85,0.00,,CLR,-99.99,VWS V14.01,2013-03-20 07:49:00,
2013-03-20 03:54:00,21.2,17.7,29.68,ESE,112,1.0,0.0,86,0.00,,CLR,-99.99,VWS V14.01,2013-03-20 07:54:00,
2013-03-20 04:00:00,21.3,17.8,29.68,ESE,112,1.0,0.0,86,0.00,,CLR,-99.99,VWS V14.01,2013-03-20 08:00:00,
2013-03-20 04:05:00,21.3,17.5,29.67,ESE,112,1.0,0.0,85,0.00,,CLR,-99.99,VWS V14.01,2013-03-20 08:05:00,
2013-03-20 04:10:00,21.3,17.5,29.67,ESE,112,1.0,0.0,85,0.00,,CLR,-99.99,VWS V14.01,2013-03-20 08:10:00,
2013-03-20 04:15:00,21.3,17.5,29.68,ESE,112,1.0,0.0,85,0.00,,CLR,-99.99,VWS V14.01,2013-03-20 08:15:00,
2013-03-20 04:20:00,21.3,17.5,29.67,ESE,112,1.0,0.0,85,0.00,,CLR,-99.99,VWS V14.01,2013-03-20 08:20:00,
2013-03-20 04:25:00,21.3,17.5,29.67,ESE,112,1.0,0.0,85,0.00,,CLR,-99.99,VWS V14.01,2013-03-20 08:25:00,
2013-03-20 04:30:00,21.3,17.5,29.67,ESE,112,1.0,0.0,85,0.00,,CLR,-99.99,VWS V14.01,2013-03-20 08:30:00,
2013-03-20 04:35:00,21.3,17.5,29.67,ESE,112,1.0,0.0,85,0.00,,CLR,-99.99,VWS V14.01,2013-03-20 08:35:00,
2013-03-20 04:40:00,21.9,18.4,29.67,ESE,112,1.0,0.0,86,0.00,,CLR,-99.99,VWS V14.01,2013-03-20 08:40:00,
2013-03-20 04:45:00,21.9,18.1,29.67,ESE,112,1.0,0.0,85,0.00,,CLR,-99.99,VWS V14.01,2013-03-20 08:45:00,
2013-03-20 04:50:00,22.2,18.4,29.66,ESE,112,1.0,0.0,85,0.00,,CLR,-99.99,VWS V14.01,2013-03-20 08:50:00,
2013-03-20 04:56:00,22.4,18.6,29.67,ESE,112,1.0,0.0,85,0.00,,CLR,-99.99,VWS V14.01,2013-03-20 08:56:00,
2013-03-20 05:02:00,22.2,18.4,29.67,ESE,112,1.0,0.0,85,0.00,,CLR,-99.99,VWS V14.01,2013-03-20 09:02:00,
2013-03-20 05:08:00,22.2,18.4,29.66,ESE,112,1.0,0.0,85,0.00,,CLR,-99.99,VWS V14.01,2013-03-20 09:08:00,
2013-03-20 05:13:00,22.2,18.4,29.67,ESE,112,1.0,0.0,85,0.00,,CLR,-99.99,VWS V14.01,2013-03-20 09:13:00,
2013-03-20 05:18:00,22.1,18.3,29.66,ESE,112,1.0,0.0,85,0.00,,CLR,-99.99,VWS V14.01,2013-03-20 09:18:00,
2013-03-20 05:24:00,22.1,18.3,29.67,ESE,112,1.0,0.0,85,0.00,,CLR,-99.99,VWS V14.01,2013-03-20 09:24:00,
2013-03-20 05:30:00,22.2,18.4,29.67,ESE,112,1.0,0.0,85,0.00,,CLR,-99.99,VWS V14.01,2013-03-20 09:30:00,
2013-03-20 05:35:00,22.2,18.4,29.67,ESE,112,1.0,0.0,85,0.00,,CLR,-99.99,VWS V14.01,2013-03-20 09:35:00,
2013-03-20 05:40:00,22.2,18.4,29.66,ESE,112,1.0,0.0,85,0.00,,CLR,-99.99,VWS V14.01,2013-03-20 09:40:00,
2013-03-20 05:45:00,22.4,18.6,29.67,ESE,112,1.0,0.0,85,0.00,,CLR,-99.99,VWS V14.01,2013-03-20 09:45:00,
2013-03-20 05:50:00,22.4,18.3,29.66,ESE,112,1.0,0.0,84,0.00,,CLR,-99.99,VWS V14.01,2013-03-20 09:50:00,
2013-03-20 05:55:00,22.6,18.5,29.66,ESE,112,1.0,0.0,84,0.00,,CLR,-99.99,VWS V14.01,2013-03-20 09:55:00,
2013-03-20 06:00:00,22.4,18.3,29.66,South,180,1.0,0.0,84,0.00,,CLR,-99.99,VWS V14.01,2013-03-20 10:00:00,
2013-03-20 06:05:00,22.4,18.3,29.66,WNW,292,1.0,0.0,84,0.00,,CLR,-99.99,VWS V14.01,2013-03-20 10:05:00,
2013-03-20 06:10:00,22.6,18.2,29.66,West,270,1.0,0.0,83,0.00,,CLR,-99.99,VWS V14.01,2013-03-20 10:10:00,
2013-03-20 06:16:00,22.8,18.4,29.66,WSW,248,1.0,0.0,83,0.00,,CLR,-99.99,VWS V14.01,2013-03-20 10:16:00,
2013-03-20 06:21:00,23.0,18.9,29.66,WSW,248,1.0,0.0,84,0.00,,CLR,-99.99,VWS V14.01,2013-03-20 10:21:00,
2013-03-20 06:27:00,23.0,18.6,29.66,WSW,248,1.0,0.0,83,0.00,,CLR,-99.99,VWS V14.01,2013-03-20 10:27:00,
2013-03-20 06:33:00,23.0,18.6,29.66,SW,225,1.0,0.0,83,0.00,,CLR,-99.99,VWS V14.01,2013-03-20 10:33:00,
2013-03-20 06:39:00,23.3,19.2,29.66,West,270,1.0,0.0,84,0.00,,CLR,-99.99,VWS V14.01,2013-03-20 10:39:00,
2013-03-20 06:44:00,23.3,19.2,29.66,WSW,248,1.0,0.0,84,0.00,,CLR,-99.99,VWS V14.01,2013-03-20 10:44:00,
2013-03-20 06:49:00,23.3,18.9,29.66,SW,225,1.0,0.0,83,0.00,,CLR,-99.99,VWS V14.01,2013-03-20 10:49:00,
2013-03-20 06:54:00,23.0,18.6,29.66,SW,225,1.0,0.0,83,0.00,,CLR,-99.99,VWS V14.01,2013-03-20 10:54:00,
2013-03-20 06:59:00,22.8,18.4,29.66,SW,225,1.0,0.0,83,0.00,,CLR,-99.99,VWS V14.01,2013-03-20 10:59:00,
2013-03-20 07:04:00,22.8,18.4,29.66,SW,225,1.0,0.0,83,0.00,,CLR,-99.99,VWS V14.01,2013-03-20 11:04:00,
2013-03-20 07:09:00,22.6,18.2,29.66,West,270,1.0,0.0,83,0.00,,CLR,-99.99,VWS V14.01,2013-03-20 11:09:00,
2013-03-20 07:15:00,22.6,18.2,29.66,West,270,1.0,0.0,83,0.00,,CLR,-99.99,VWS V14.01,2013-03-20 11:15:00,
2013-03-20 07:20:00,22.6,18.2,29.66,WNW,292,1.0,0.0,83,0.00,,CLR,-99.99,VWS V14.01,2013-03-20 11:20:00,
2013-03-20 07:25:00,22.8,18.1,29.66,West,270,1.0,0.0,82,0.00,,CLR,-99.99,VWS V14.01,2013-03-20 11:25:00,
2013-03-20 07:31:00,22.8,18.1,29.66,WNW,292,1.0,0.0,82,0.00,,CLR,-99.99,VWS V14.01,2013-03-20 11:31:00,
2013-03-20 07:36:00,22.8,18.1,29.66,West,270,1.0,0.0,82,0.00,,CLR,-99.99,VWS V14.01,2013-03-20 11:36:00,
2013-03-20 07:41:00,22.8,18.1,29.66,NW,315,1.0,0.0,82,0.00,,CLR,-99.99,VWS V14.01,2013-03-20 11:41:00,
2013-03-20 07:46:00,23.1,18.4,29.67,WSW,248,1.0,0.0,82,0.00,,CLR,-99.99,VWS V14.01,2013-03-20 11:46:00,
2013-03-20 07:51:00,23.1,18.4,29.66,WSW,248,1.0,0.0,82,0.00,,CLR,-99.99,VWS V14.01,2013-03-20 11:51:00,
2013-03-20 07:57:00,24.0,19.3,29.67,SW,225,1.0,0.0,82,0.00,,CLR,-99.99,VWS V14.01,2013-03-20 11:57:00,
2013-03-20 08:02:00,24.2,19.2,29.67,West,270,1.0,0.0,81,0.00,,CLR,-99.99,VWS V14.01,2013-03-20 12:02:00,
2013-03-20 08:08:00,24.0,18.7,29.67,SW,225,1.0,0.0,80,0.00,,CLR,-99.99,VWS V14.01,2013-03-20 12:08:00,
2013-03-20 08:13:00,24.4,19.4,29.66,SW,225,1.0,0.0,81,0.00,,CLR,-99.99,VWS V14.01,2013-03-20 12:13:00,
2013-03-20 08:18:00,24.4,19.1,29.66,WSW,248,1.0,0.0,80,0.00,,CLR,-99.99,VWS V14.01,2013-03-20 12:18:00,
2013-03-20 08:23:00,24.6,19.3,29.67,SSW,202,1.0,0.0,80,0.00,,CLR,-99.99,VWS V14.01,2013-03-20 12:23:00,
2013-03-20 08:28:00,24.6,19.0,29.66,WNW,292,1.0,0.0,79,0.00,,CLR,-99.99,VWS V14.01,2013-03-20 12:28:00,
2013-03-20 08:34:00,24.6,19.0,29.66,South,180,1.0,0.0,79,0.00,,CLR,-99.99,VWS V14.01,2013-03-20 12:34:00,
2013-03-20 08:40:00,24.6,19.0,29.67,WNW,292,1.0,0.0,79,0.00,,CLR,-99.99,VWS V14.01,2013-03-20 12:40:00,
2013-03-20 08:45:00,24.6,19.0,29.67,SSW,202,1.0,0.0,79,0.00,,CLR,-99.99,VWS V14.01,2013-03-20 12:45:00,
2013-03-20 08:50:00,24.8,19.2,29.67,WSW,248,1.0,0.0,79,0.00,,CLR,-99.99,VWS V14.01,2013-03-20 12:50:00,
2013-03-20 08:55:00,24.9,19.0,29.67,WSW,248,1.0,0.0,78,0.00,,CLR,-99.99,VWS V14.01,2013-03-20 12:55:00,
2013-03-20 09:00:00,25.1,19.2,29.67,West,270,1.0,0.0,78,0.00,,CLR,-99.99,VWS V14.01,2013-03-20 13:00:00,
2013-03-20 09:06:00,25.1,19.2,29.67,SW,225,1.0,0.0,78,0.00,,CLR,-99.99,VWS V14.01,2013-03-20 13:06:00,
2013-03-20 09:12:00,25.3,19.1,29.67,WSW,248,1.0,0.0,77,0.00,,CLR,-99.99,VWS V14.01,2013-03-20 13:12:00,
2013-03-20 09:17:00,25.3,19.1,29.67,WNW,292,1.0,0.0,77,0.00,,CLR,-99.99,VWS V14.01,2013-03-20 13:17:00,
2013-03-20 09:22:00,25.3,19.1,29.67,NW,315,1.0,0.0,77,0.00,,CLR,-99.99,VWS V14.01,2013-03-20 13:22:00,
2013-03-20 09:27:00,25.3,18.8,29.68,NW,315,1.0,0.0,76,0.00,,CLR,-99.99,VWS V14.01,2013-03-20 13:27:00,
2013-03-20 09:32:00,25.3,18.8,29.67,NW,315,1.0,0.0,76,0.00,,CLR,-99.99,VWS V14.01,2013-03-20 13:32:00,
2013-03-20 09:37:00,25.3,18.5,29.68,NW,315,1.0,0.0,75,0.00,,CLR,-99.99,VWS V14.01,2013-03-20 13:37:00,
2013-03-20 09:43:00,26.0,19.2,29.68,WNW,292,1.0,0.0,75,0.00,,CLR,-99.99,VWS V14.01,2013-03-20 13:43:00,
2013-03-20 09:48:00,26.6,19.1,29.68,West,270,1.0,0.0,73,0.00,,CLR,-99.99,VWS V14.01,2013-03-20 13:48:00,
2013-03-20 09:54:00,26.9,19.1,29.68,WNW,292,1.0,0.0,72,0.00,,CLR,-99.99,VWS V14.01,2013-03-20 13:54:00,
2013-03-20 09:59:00,27.5,19.0,29.67,WSW,248,1.0,0.0,70,0.00,,CLR,-99.99,VWS V14.01,2013-03-20 13:59:00,
2013-03-20 10:05:00,27.1,18.3,29.68,NNW,338,1.0,0.0,69,0.00,,CLR,-99.99,VWS V14.01,2013-03-20 14:05:00,
2013-03-20 10:10:00,27.6,18.1,29.68,WSW,248,1.0,0.0,67,0.00,,CLR,-99.99,VWS V14.01,2013-03-20 14:10:00,
2013-03-20 10:15:00,28.2,19.0,29.68,West,270,1.0,0.0,68,0.00,,CLR,-99.99,VWS V14.01,2013-03-20 14:15:00,
2013-03-20 10:20:00,28.5,18.6,29.68,NW,315,1.0,0.0,66,0.00,,CLR,-99.99,VWS V14.01,2013-03-20 14:20:00,
2013-03-20 10:25:00,29.3,19.4,29.68,WNW,292,1.0,0.0,66,0.00,,CLR,-99.99,VWS V14.01,2013-03-20 14:25:00,
2013-03-20 10:30:00,28.4,18.1,29.68,NNW,338,1.0,0.0,65,0.00,,CLR,-99.99,VWS V14.01,2013-03-20 14:30:00,
2013-03-20 10:36:00,28.2,18.0,29.68,West,270,1.0,0.0,65,0.00,,CLR,-99.99,VWS V14.01,2013-03-20 14:36:00,
2013-03-20 10:42:00,28.9,18.6,29.67,West,270,1.0,0.0,65,0.00,,CLR,-99.99,VWS V14.01,2013-03-20 14:42:00,
2013-03-20 10:47:00,29.3,19.4,29.67,SW,225,1.0,0.0,66,0.00,,CLR,-99.99,VWS V14.01,2013-03-20 14:47:00,
2013-03-20 11:14:00,28.2,18.0,29.68,West,270,1.0,0.0,65,99.99,,CLR,-99.99,VWS V14.01,2013-03-20 15:14:00,
2013-03-20 11:19:00,28.5,18.2,29.68,NW,315,1.0,0.0,65,0.00,,CLR,-99.99,VWS V14.01,2013-03-20 15:19:00,
2013-03-20 11:25:00,28.9,18.6,29.67,NNW,338,1.0,0.0,65,0.00,,CLR,-99.99,VWS V14.01,2013-03-20 15:25:00,
2013-03-20 11:30:00,30.0,20.4,29.67,NW,315,1.0,0.0,67,0.00,,CLR,-99.99,VWS V14.01,2013-03-20 15:30:00,
2013-03-20 11:35:00,30.7,20.7,29.67,NW,315,1.0,0.0,66,0.00,,CLR,-99.99,VWS V14.01,2013-03-20 15:35:00,
2013-03-20 11:40:00,30.7,20.0,29.67,NW,315,1.0,0.0,64,0.00,,CLR,-99.99,VWS V14.01,2013-03-20 15:40:00,
2013-03-20 11:45:00,30.2,19.1,29.67,SW,225,1.0,0.0,63,0.00,,CLR,-99.99,VWS V14.01,2013-03-20 15:45:00,
2013-03-20 11:50:00,29.8,18.8,29.67,WSW,248,1.0,0.0,63,0.00,,CLR,-99.99,VWS V14.01,2013-03-20 15:50:00,
2013-03-20 11:55:00,29.8,19.1,29.67,WNW,292,1.0,0.0,64,0.00,,CLR,-99.99,VWS V14.01,2013-03-20 15:55:00,
2013-03-20 12:00:00,29.6,17.8,29.67,West,270,1.0,0.0,61,0.00,,CLR,-99.99,VWS V14.01,2013-03-20 16:00:00,
2013-03-20 12:06:00,29.3,18.3,29.67,NNW,338,1.0,0.0,63,0.00,,CLR,-99.99,VWS V14.01,2013-03-20 16:06:00,
2013-03-20 12:12:00,29.1,17.7,29.67,NNW,338,1.0,0.0,62,0.00,,CLR,-99.99,VWS V14.01,2013-03-20 16:12:00,
2013-03-20 12:17:00,29.8,18.8,29.67,West,270,1.0,0.0,63,0.00,,CLR,-99.99,VWS V14.01,2013-03-20 16:17:00,
2013-03-20 12:22:00,30.3,19.2,29.67,SW,225,1.0,0.0,63,0.00,,CLR,-99.99,VWS V14.01,2013-03-20 16:22:00,
2013-03-20 12:27:00,30.7,18.9,29.66,SSW,202,1.0,0.0,61,0.00,,CLR,-99.99,VWS V14.01,2013-03-20 16:27:00,
2013-03-20 12:32:00,30.9,19.4,29.67,WNW,292,1.0,0.0,62,0.00,,CLR,-99.99,VWS V14.01,2013-03-20 16:32:00,
2013-03-20 12:37:00,30.7,18.5,29.67,WNW,292,1.0,0.0,60,0.00,,CLR,-99.99,VWS V14.01,2013-03-20 16:37:00,
2013-03-20 12:43:00,29.6,18.2,29.67,WNW,292,1.0,0.0,62,0.00,,CLR,-99.99,VWS V14.01,2013-03-20 16:43:00,
2013-03-20 12:49:00,29.8,18.4,29.67,WNW,292,1.0,0.0,62,0.00,,CLR,-99.99,VWS V14.01,2013-03-20 16:49:00,
2013-03-20 12:54:00,29.4,18.4,29.67,WSW,248,1.0,0.0,63,0.00,,CLR,-99.99,VWS V14.01,2013-03-20 16:54:00,
2013-03-20 13:00:00,29.3,18.6,29.67,West,270,1.0,0.0,64,0.00,,CLR,-99.99,VWS V14.01,2013-03-20 17:00:00,
2013-03-20 13:05:00,29.8,18.8,29.67,NW,315,1.0,0.0,63,0.00,,CLR,-99.99,VWS V14.01,2013-03-20 17:05:00,
2013-03-20 13:10:00,31.1,20.4,29.67,WNW,292,1.0,0.0,64,0.00,,CLR,-99.99,VWS V14.01,2013-03-20 17:10:00,
2013-03-20 13:15:00,32.9,20.5,29.66,NW,315,1.0,0.0,60,0.00,,CLR,-99.99,VWS V14.01,2013-03-20 17:15:00,
2013-03-20 13:20:00,33.0,20.2,29.66,SSW,202,1.0,0.0,59,0.00,,CLR,-99.99,VWS V14.01,2013-03-20 17:20:00,
2013-03-20 13:25:00,32.3,19.2,29.66,WNW,292,1.0,0.0,58,0.00,,CLR,-99.99,VWS V14.01,2013-03-20 17:25:00,
2013-03-20 13:30:00,32.7,20.4,29.66,SW,225,1.0,0.0,60,0.00,,CLR,-99.99,VWS V14.01,2013-03-20 17:30:00,
2013-03-20 13:35:00,32.3,19.2,29.66,NW,315,1.0,0.0,58,0.00,,CLR,-99.99,VWS V14.01,2013-03-20 17:35:00,
2013-03-20 13:40:00,31.8,19.5,29.66,WSW,248,1.0,0.0,60,0.00,,CLR,-99.99,VWS V14.01,2013-03-20 17:40:00,
2013-03-20 13:45:00,31.6,19.3,29.66,NW,315,1.0,0.0,60,0.00,,CLR,-99.99,VWS V14.01,2013-03-20 17:45:00,
2013-03-20 13:50:00,31.1,18.1,29.66,WNW,292,1.0,0.0,58,0.00,,CLR,-99.99,VWS V14.01,2013-03-20 17:50:00,
2013-03-20 13:55:00,30.7,18.1,29.66,NNW,338,1.0,0.0,59,0.00,,CLR,-99.99,VWS V14.01,2013-03-20 17:55:00,
2013-03-20 14:00:00,30.7,18.1,29.66,NW,315,1.0,0.0,59,0.00,,CLR,-99.99,VWS V14.01,2013-03-20 18:00:00,
2013-03-20 14:06:00,30.3,18.1,29.66,North,0,1.0,0.0,60,0.00,,CLR,-99.99,VWS V14.01,2013-03-20 18:06:00,
2013-03-20 14:12:00,30.3,18.5,29.65,WSW,248,1.0,0.0,61,0.00,,CLR,-99.99,VWS V14.01,2013-03-20 18:12:00,
2013-03-20 14:17:00,31.2,20.1,29.65,WNW,292,1.0,0.0,63,0.00,,CLR,-99.99,VWS V14.01,2013-03-20 18:17:00,
2013-03-20 14:22:00,33.0,21.4,29.65,SW,225,1.0,0.0,62,0.00,,CLR,-99.99,VWS V14.01,2013-03-20 18:22:00,
2013-03-20 14:27:00,33.8,21.8,29.65,SSW,202,1.0,0.0,61,0.00,,CLR,-99.99,VWS V14.01,2013-03-20 18:27:00,
2013-03-20 14:32:00,34.5,22.1,29.65,NNE,22,1.0,0.0,60,0.00,,CLR,-99.99,VWS V14.01,2013-03-20 18:32:00,
2013-03-20 14:38:00,33.6,21.6,29.65,South,180,1.0,0.0,61,0.00,,CLR,-99.99,VWS V14.01,2013-03-20 18:38:00,
2013-03-20 14:44:00,33.0,20.6,29.65,West,270,1.0,0.0,60,0.00,,CLR,-99.99,VWS V14.01,2013-03-20 18:44:00,
2013-03-20 14:49:00,33.4,21.0,29.65,West,270,1.0,0.0,60,0.00,,CLR,-99.99,VWS V14.01,2013-03-20 18:49:00,
2013-03-20 14:55:00,32.7,19.6,29.65,NNW,338,1.0,0.0,58,0.00,,CLR,-99.99,VWS V14.01,2013-03-20 18:55:00,
2013-03-20 15:00:00,33.8,21.0,29.64,NNW,338,1.0,0.0,59,0.00,,CLR,-99.99,VWS V14.01,2013-03-20 19:00:00,
2013-03-20 15:05:00,34.3,21.1,29.64,NNE,22,1.0,0.0,58,0.00,,CLR,-99.99,VWS V14.01,2013-03-20 19:05:00,
2013-03-20 15:10:00,34.5,21.3,29.64,NW,315,1.0,0.0,58,0.00,,CLR,-99.99,VWS V14.01,2013-03-20 19:10:00,
2013-03-20 15:15:00,33.9,20.7,29.64,West,270,1.0,0.0,58,0.00,,CLR,-99.99,VWS V14.01,2013-03-20 19:15:00,
2013-03-20 15:20:00,33.6,20.8,29.64,North,0,1.0,0.0,59,0.00,,CLR,-99.99,VWS V14.01,2013-03-20 19:20:00,
2013-03-20 15:25:00,33.0,21.0,29.65,WNW,292,1.0,0.0,61,0.00,,CLR,-99.99,VWS V14.01,2013-03-20 19:25:00,
2013-03-20 15:30:00,33.2,21.2,29.65,WNW,292,1.0,0.0,61,0.00,,CLR,-99.99,VWS V14.01,2013-03-20 19:30:00,
2013-03-20 15:35:00,33.6,21.6,29.64,WSW,248,1.0,0.0,61,0.00,,CLR,-99.99,VWS V14.01,2013-03-20 19:35:00,
2013-03-20 15:40:00,33.6,22.0,29.64,SW,225,1.0,0.0,62,0.00,,CLR,-99.99,VWS V14.01,2013-03-20 19:40:00,
2013-03-20 15:45:00,33.9,21.9,29.64,SW,225,1.0,0.0,61,0.00,,CLR,-99.99,VWS V14.01,2013-03-20 19:45:00,
2013-03-20 15:50:00,33.9,22.3,29.64,SSW,202,1.0,0.0,62,0.00,,CLR,-99.99,VWS V14.01,2013-03-20 19:50:00,
2013-03-20 15:55:00,32.9,21.3,29.64,SW,225,1.0,0.0,62,0.00,,CLR,-99.99,VWS V14.01,2013-03-20 19:55:00,
2013-03-20 16:00:00,32.3,21.5,29.64,SW,225,1.0,0.0,64,0.00,,CLR,-99.99,VWS V14.01,2013-03-20 20:00:00,
2013-03-20 16:06:00,31.8,21.4,29.64,West,270,1.0,0.0,65,0.00,,CLR,-99.99,VWS V14.01,2013-03-20 20:06:00,
2013-03-20 16:12:00,31.8,22.1,29.64,SW,225,1.0,0.0,67,0.00,,CLR,-99.99,VWS V14.01,2013-03-20 20:12:00,
2013-03-20 16:17:00,32.0,22.3,29.64,SW,225,1.0,0.0,67,0.00,,CLR,-99.99,VWS V14.01,2013-03-20 20:17:00,
2013-03-20 16:22:00,31.2,21.9,29.64,WSW,248,1.0,0.0,68,0.00,,CLR,-99.99,VWS V14.01,2013-03-20 20:22:00,
2013-03-20 16:27:00,30.9,21.9,29.64,SW,225,1.0,0.0,69,0.00,,CLR,-99.99,VWS V14.01,2013-03-20 20:27:00,
2013-03-20 16:33:00,30.0,21.4,29.64,NW,315,1.0,0.0,70,0.00,,CLR,-99.99,VWS V14.01,2013-03-20 20:33:00,
2013-03-20 16:38:00,30.0,21.8,29.64,WNW,292,1.0,0.0,71,0.00,,CLR,-99.99,VWS V14.01,2013-03-20 20:38:00,
2013-03-20 16:43:00,29.8,21.9,29.64,WSW,248,1.0,0.0,72,0.00,,CLR,-99.99,VWS V14.01,2013-03-20 20:43:00,
2013-03-20 16:49:00,29.6,22.0,29.65,South,180,1.0,0.0,73,0.00,,CLR,-99.99,VWS V14.01,2013-03-20 20:49:00,
2013-03-20 16:54:00,29.4,21.8,29.65,SW,225,1.0,0.0,73,0.00,,CLR,-99.99,VWS V14.01,2013-03-20 20:54:00,
2013-03-20 17:00:00,30.0,22.7,29.65,SSW,202,1.0,0.0,74,0.00,,CLR,-99.99,VWS V14.01,2013-03-20 21:00:00,
2013-03-20 17:05:00,29.4,22.1,29.65,SW,225,1.0,0.0,74,0.00,,CLR,-99.99,VWS V14.01,2013-03-20 21:05:00,
2013-03-20 17:10:00,29.1,22.2,29.65,SSW,202,1.0,0.0,75,0.00,,CLR,-99.99,VWS V14.01,2013-03-20 21:10:00,
2013-03-20 17:15:00,29.4,22.5,29.65,SW,225,1.0,0.0,75,0.00,,CLR,-99.99,VWS V14.01,2013-03-20 21:15:00,
2013-03-20 17:20:00,29.8,22.9,29.65,SSW,202,1.0,0.0,75,0.00,,CLR,-99.99,VWS V14.01,2013-03-20 21:20:00,
2013-03-20 17:25:00,29.8,22.5,29.65,SSW,202,1.0,0.0,74,0.00,,CLR,-99.99,VWS V14.01,2013-03-20 21:25:00,
2013-03-20 17:30:00,29.4,22.1,29.65,SW,225,1.0,0.0,74,0.00,,CLR,-99.99,VWS V14.01,2013-03-20 21:30:00,
2013-03-20 17:35:00,29.4,22.1,29.65,SW,225,1.0,0.0,74,0.00,,CLR,-99.99,VWS V14.01,2013-03-20 21:35:00,
2013-03-20 17:40:00,29.3,22.1,29.66,SW,225,1.0,0.0,74,0.00,,CLR,-99.99,VWS V14.01,2013-03-20 21:40:00,
2013-03-20 17:45:00,28.9,22.0,29.66,WNW,292,1.0,0.0,75,0.00,,CLR,-99.99,VWS V14.01,2013-03-20 21:45:00,
2013-03-20 17:50:00,28.9,22.3,29.66,WNW,292,1.0,0.0,76,0.00,,CLR,-99.99,VWS V14.01,2013-03-20 21:50:00,
2013-03-20 17:55:00,29.6,23.0,29.66,SW,225,1.0,0.0,76,0.00,,CLR,-99.99,VWS V14.01,2013-03-20 21:55:00,
2013-03-20 18:00:00,29.6,22.7,29.66,West,270,1.0,0.0,75,0.00,,CLR,-99.99,VWS V14.01,2013-03-20 22:00:00,
2013-03-20 18:05:00,29.4,22.5,29.66,SSE,158,1.0,0.0,75,0.00,,CLR,-99.99,VWS V14.01,2013-03-20 22:05:00,
2013-03-20 18:10:00,28.7,21.8,29.66,SSW,202,1.0,0.0,75,0.00,,CLR,-99.99,VWS V14.01,2013-03-20 22:10:00,
2013-03-20 18:16:00,28.5,21.9,29.66,WSW,248,1.0,0.0,76,0.00,,CLR,-99.99,VWS V14.01,2013-03-20 22:16:00,
2013-03-20 18:21:00,28.2,21.9,29.67,NW,315,1.0,0.0,77,0.00,,CLR,-99.99,VWS V14.01,2013-03-20 22:21:00,
2013-03-20 18:27:00,28.2,21.9,29.67,SSW,202,1.0,0.0,77,0.00,,CLR,-99.99,VWS V14.01,2013-03-20 22:27:00,
2013-03-20 18:32:00,28.0,21.7,29.66,SW,225,1.0,0.0,77,0.00,,CLR,-99.99,VWS V14.01,2013-03-20 22:32:00,
2013-03-20 18:38:00,27.6,21.4,29.67,NNW,338,1.0,0.0,77,0.00,,CLR,-99.99,VWS V14.01,2013-03-20 22:38:00,
2013-03-20 18:43:00,27.5,21.5,29.67,SW,225,1.0,0.0,78,0.00,,CLR,-99.99,VWS V14.01,2013-03-20 22:43:00,
2013-03-20 18:48:00,27.3,21.4,29.67,WSW,248,1.0,0.0,78,0.00,,CLR,-99.99,VWS V14.01,2013-03-20 22:48:00,
2013-03-20 18:54:00,27.1,21.5,29.67,WSW,248,1.0,0.0,79,0.00,,CLR,-99.99,VWS V14.01,2013-03-20 22:54:00,
2013-03-20 18:59:00,26.7,21.4,29.67,WSW,248,1.0,0.0,80,0.00,,CLR,-99.99,VWS V14.01,2013-03-20 22:59:00,
2013-03-20 19:05:00,26.7,21.4,29.68,SW,225,1.0,0.0,80,0.00,,CLR,-99.99,VWS V14.01,2013-03-20 23:05:00,
2013-03-20 19:10:00,26.6,21.6,29.68,WSW,248,1.0,0.0,81,0.00,,CLR,-99.99,VWS V14.01,2013-03-20 23:10:00,
2013-03-20 19:15:00,26.6,21.6,29.68,SW,225,1.0,0.0,81,0.00,,CLR,-99.99,VWS V14.01,2013-03-20 23:15:00,
2013-03-20 19:20:00,26.6,21.6,29.68,SW,225,1.0,0.0,81,0.00,,CLR,-99.99,VWS V14.01,2013-03-20 23:20:00,
2013-03-20 19:25:00,26.6,21.6,29.68,SW,225,1.0,0.0,81,0.00,,CLR,-99.99,VWS V14.01,2013-03-20 23:25:00,
2013-03-20 19:30:00,26.6,21.9,29.68,SW,225,1.0,0.0,82,0.00,,CLR,-99.99,VWS V14.01,2013-03-20 23:30:00,
2013-03-20 19:35:00,26.6,21.9,29.68,SW,225,1.0,0.0,82,0.00,,CLR,-99.99,VWS V14.01,2013-03-20 23:35:00,
2013-03-20 19:40:00,26.6,21.9,29.68,South,180,1.0,0.0,82,0.00,,CLR,-99.99,VWS V14.01,2013-03-20 23:40:00,
2013-03-20 19:45:00,26.4,21.7,29.68,SSW,202,1.0,0.0,82,0.00,,CLR,-99.99,VWS V14.01,2013-03-20 23:45:00,
2013-03-20 19:50:00,26.4,21.7,29.68,SSW,202,1.0,0.0,82,0.00,,CLR,-99.99,VWS V14.01,2013-03-20 23:50:00,
2013-03-20 19:55:00,26.4,21.7,29.68,SSW,202,1.0,0.0,82,0.00,,CLR,-99.99,VWS V14.01,2013-03-20 23:55:00,
2013-03-20 20:00:00,26.4,21.7,29.68,SW,225,1.0,0.0,82,0.00,,CLR,-99.99,VWS V14.01,2013-03-21 00:00:00,
2013-03-20 20:06:00,26.4,21.7,29.68,WSW,248,1.0,0.0,82,0.00,,CLR,-99.99,VWS V14.01,2013-03-21 00:06:00,
2013-03-20 20:11:00,26.2,21.8,29.68,SW,225,1.0,0.0,83,0.00,,CLR,-99.99,VWS V14.01,2013-03-21 00:11:00,
2013-03-20 20:17:00,25.8,21.6,29.68,SSW,202,1.0,0.0,84,0.00,,CLR,-99.99,VWS V14.01,2013-03-21 00:17:00,
2013-03-20 20:23:00,25.8,21.6,29.68,SSW,202,1.0,0.0,84,0.00,,CLR,-99.99,VWS V14.01,2013-03-21 00:23:00,
2013-03-20 20:28:00,25.7,21.5,29.69,WSW,248,1.0,0.0,84,0.00,,CLR,-99.99,VWS V14.01,2013-03-21 00:28:00,
2013-03-20 20:33:00,25.7,21.5,29.68,NW,315,1.0,0.0,84,0.00,,CLR,-99.99,VWS V14.01,2013-03-21 00:33:00,
2013-03-20 20:39:00,25.5,21.1,29.69,South,180,1.0,0.0,83,0.00,,CLR,-99.99,VWS V14.01,2013-03-21 00:39:00,
2013-03-20 20:44:00,25.5,21.1,29.69,SSW,202,1.0,0.0,83,0.00,,CLR,-99.99,VWS V14.01,2013-03-21 00:44:00,
2013-03-20 20:50:00,25.5,20.8,29.69,West,270,1.0,0.0,82,0.00,,CLR,-99.99,VWS V14.01,2013-03-21 00:50:00,
2013-03-20 20:55:00,25.3,20.6,29.69,SW,225,1.0,0.0,82,0.00,,CLR,-99.99,VWS V14.01,2013-03-21 00:55:00,
2013-03-20 21:00:00,25.5,20.8,29.69,SW,225,1.0,0.0,82,0.00,,CLR,-99.99,VWS V14.01,2013-03-21 01:00:00,
2013-03-20 21:05:00,25.5,20.5,29.69,SSW,202,1.0,0.0,81,0.00,,CLR,-99.99,VWS V14.01,2013-03-21 01:05:00,
2013-03-20 21:10:00,25.3,20.3,29.69,SSW,202,1.0,0.0,81,0.00,,CLR,-99.99,VWS V14.01,2013-03-21 01:10:00,
2013-03-20 21:15:00,25.3,20.6,29.69,SW,225,1.0,0.0,82,0.00,,CLR,-99.99,VWS V14.01,2013-03-21 01:15:00,
2013-03-20 21:20:00,25.3,20.6,29.69,SW,225,1.0,0.0,82,0.00,,CLR,-99.99,VWS V14.01,2013-03-21 01:20:00,
2013-03-20 21:25:00,25.3,20.9,29.69,SW,225,1.0,0.0,83,0.00,,CLR,-99.99,VWS V14.01,2013-03-21 01:25:00,
2013-03-20 21:30:00,25.3,20.9,29.69,SSW,202,1.0,0.0,83,0.00,,CLR,-99.99,VWS V14.01,2013-03-21 01:30:00,
2013-03-20 21:35:00,25.1,20.7,29.70,SW,225,1.0,0.0,83,0.00,,CLR,-99.99,VWS V14.01,2013-03-21 01:35:00,
2013-03-20 21:40:00,25.1,20.7,29.69,SSW,202,1.0,0.0,83,0.00,,CLR,-99.99,VWS V14.01,2013-03-21 01:40:00,
2013-03-20 21:45:00,25.1,20.7,29.69,SW,225,1.0,0.0,83,0.00,,CLR,-99.99,VWS V14.01,2013-03-21 01:45:00,
2013-03-20 21:50:00,24.9,20.5,29.69,SW,225,1.0,0.0,83,0.00,,CLR,-99.99,VWS V14.01,2013-03-21 01:50:00,
2013-03-20 21:56:00,24.9,20.5,29.69,SSW,202,1.0,0.0,83,0.00,,CLR,-99.99,VWS V14.01,2013-03-21 01:56:00,
2013-03-20 22:01:00,24.6,20.2,29.69,SW,225,1.0,0.0,83,0.00,,CLR,-99.99,VWS V14.01,2013-03-21 02:01:00,
2013-03-20 22:06:00,24.6,20.2,29.69,SSW,202,1.0,0.0,83,0.00,,CLR,-99.99,VWS V14.01,2013-03-21 02:06:00,
2013-03-20 22:11:00,24.6,20.2,29.69,SSW,202,1.0,0.0,83,0.00,,CLR,-99.99,VWS V14.01,2013-03-21 02:11:00,
2013-03-20 22:16:00,24.4,20.0,29.69,SW,225,1.0,0.0,83,0.00,,CLR,-99.99,VWS V14.01,2013-03-21 02:16:00,
2013-03-20 22:21:00,24.4,20.0,29.69,SW,225,1.0,0.0,83,0.00,,CLR,-99.99,VWS V14.01,2013-03-21 02:21:00,
2013-03-20 22:27:00,24.2,19.8,29.68,SW,225,1.0,0.0,83,0.00,,CLR,-99.99,VWS V14.01,2013-03-21 02:27:00,
2013-03-20 22:32:00,24.0,19.6,29.69,South,180,1.0,0.0,83,0.00,,CLR,-99.99,VWS V14.01,2013-03-21 02:32:00,
2013-03-20 22:38:00,24.0,19.9,29.68,SW,225,2.7,2.7,84,0.00,,CLR,-99.99,VWS V14.01,2013-03-21 02:38:00,
2013-03-20 22:44:00,23.9,19.8,29.68,SW,225,1.0,0.0,84,0.00,,CLR,-99.99,VWS V14.01,2013-03-21 02:44:00,
2013-03-20 22:50:00,23.9,19.8,29.68,South,180,1.0,1.8,84,0.00,,CLR,-99.99,VWS V14.01,2013-03-21 02:50:00,
2013-03-20 22:55:00,23.9,19.8,29.68,SW,225,1.0,0.0,84,0.00,,CLR,-99.99,VWS V14.01,2013-03-21 02:55:00,
2013-03-20 23:00:00,23.7,19.6,29.68,WSW,248,1.0,0.0,84,0.00,,CLR,-99.99,VWS V14.01,2013-03-21 03:00:00,
2013-03-20 23:05:00,23.5,19.4,29.68,South,180,1.0,0.0,84,0.00,,CLR,-99.99,VWS V14.01,2013-03-21 03:05:00,
2013-03-20 23:10:00,23.5,19.4,29.68,WSW,248,1.0,0.0,84,0.00,,CLR,-99.99,VWS V14.01,2013-03-21 03:10:00,
2013-03-20 23:15:00,23.3,19.2,29.68,SW,225,1.0,0.0,84,0.00,,CLR,-99.99,VWS V14.01,2013-03-21 03:15:00,
2013-03-20 23:20:00,23.1,19.0,29.68,SSW,202,1.0,0.0,84,0.00,,CLR,-99.99,VWS V14.01,2013-03-21 03:20:00,
2013-03-20 23:25:00,23.1,19.0,29.68,SW,225,1.0,0.0,84,0.00,,CLR,-99.99,VWS V14.01,2013-03-21 03:25:00,
2013-03-20 23:30:00,23.1,19.0,29.68,SW,225,1.0,0.0,84,0.00,,CLR,-99.99,VWS V14.01,2013-03-21 03:30:00,
2013-03-20 23:35:00,23.0,18.9,29.69,SSW,202,1.0,0.0,84,0.00,,CLR,-99.99,VWS V14.01,2013-03-21 03:35:00,
2013-03-20 23:40:00,22.8,18.7,29.69,South,180,1.0,0.0,84,0.00,,CLR,-99.99,VWS V14.01,2013-03-21 03:40:00,
2013-03-20 23:45:00,22.8,18.7,29.68,SSW,202,1.0,0.0,84,0.00,,CLR,-99.99,VWS V14.01,2013-03-21 03:45:00,
2013-03-20 23:50:00,22.8,18.7,29.68,SSW,202,1.0,0.0,84,0.00,,CLR,-99.99,VWS V14.01,2013-03-21 03:50:00,
2013-03-20 23:55:00,22.6,18.5,29.69,SW,225,1.0,0.0,84,0.00,,CLR,-99.99,VWS V14.01,2013-03-21 03:55:00,